User: anonymous   Login
Location: Unspecified
(0.0000°N, 0.0000°E)
Time: 16:00:45
(UTC+00:00)
Language:

S-NET C - Orbit

View from above orbital plane
View from above orbital plane
View from above satellite
View from above satellite

Ground track
Ground track

The orbit data is extracted from the following two-line orbital elements,

1 43189U 18014K   21333.70812265  .00000324  00000-0  32921-4 0  9992
2 43189  97.6680 238.1727 0009231 245.8246 114.2011 14.97249428207570
Epoch (UTC): 29 November 2021 16:59:41
Eccentricity: 0.0009231
inclination: 97.6680°
perigee height: 569 km
apogee height: 582 km
right ascension of ascending node: 238.1727°
argument of perigee: 245.8246°
revolutions per day: 14.97249428
mean anomaly at epoch: 114.2011°
orbit number at epoch: 20757

The dashed part of the orbit path shows where the satellite is in the earth's shadow,  

DLR